Weather History for Evanston, WY

Change the Weather History Date:

Monday, April 22, 2013

  Actual Average Record
Temperature  
Mean Temperature 38 °F 41 °F  
Max Temperature 45 °F 52 °F 75 °F (2012)
Min Temperature 30 °F 30 °F 19 °F (2011)
Degree Days  
Heating Degree Days 27 24  
Month to date heating degree days 670 590  
Since 1 July heating degree days 7261 7658  
Cooling Degree Days 0 0  
Month to date cooling degree days 0 0  
Year to date cooling degree days 0 0  
Moisture  
Dew Point 21 °F    
Average Humidity 58    
Maximum Humidity 89    
Minimum Humidity 27    
Precipitation  
Precipitation T in 0.04 in 0.18 in (2003)
Month to date precipitation 0.92 0.78  
Year to date precipitation 1.80 2.79  
Sea Level Pressure  
Sea Level Pressure 29.99 in    
Wind  
Wind Speed 17 mph (WNW)    
Max Wind Speed 27 mph    
Max Gust Speed 40 mph    
Visibility 9 miles    
Events Snow    
T = Trace of Precipitation, MM = Missing Value Source: NWS Daily Summary

Daily Weather History Graph

Daily Weather History Graph

Search for Another Location

Airport:

Trip Planner

Search our weather history database for the weather conditions in past years. The results will help you decide how hot, cold, wet, or windy it might be!

Date:

Astronomy

Apr. 22, 2013 Rise Set
Actual Time 6:33 AM MDT 8:12 PM MDT
Civil Twilight 6:04 AM MDT 8:41 PM MDT
Nautical Twilight 5:29 AM MDT 9:16 PM MDT
Astronomical Twilight 4:51 AM MDT 9:54 PM MDT
Moon 5:03 PM MDT (4/22) 4:32 AM MDT (4/22)
Length of Visible Light 14h 37m
Length of Day
13h 38m
Waxing Gibbous, 88% of the Moon is Illuminated
Apr 22
Waxing Gibbous
Apr 25
Full
May 2
Last Quarter
May 9
New
May 17
First Quarter

Hourly Weather History & Observations

Time (MDT) Temp. Windchill Dew Point Humidity Pressure Visibility Wind Dir Wind Speed Gust Speed Precip Events Conditions
12:53 AM 34.0 °F 25.0 °F 30.9 °F 89% 29.94 in 10.0 mi SW 12.7 mph - N/A   Partly Cloudy
1:53 AM 34.0 °F 26.6 °F 30.0 °F 85% 29.92 in 10.0 mi WSW 9.2 mph - N/A   Clear
2:53 AM 32.0 °F 24.2 °F 28.9 °F 88% 29.91 in 10.0 mi SW 9.2 mph - N/A   Mostly Cloudy
3:53 AM 36.0 °F 27.1 °F 27.0 °F 70% 29.87 in 10.0 mi WSW 13.8 mph - N/A   Mostly Cloudy
4:53 AM 37.0 °F 28.1 °F 27.0 °F 67% 29.87 in 10.0 mi WSW 15.0 mph 24.2 mph N/A   Overcast
5:53 AM 37.0 °F 27.0 °F 25.0 °F 62% 29.88 in 10.0 mi West 18.4 mph 24.2 mph N/A   Overcast
6:53 AM 35.1 °F 25.5 °F 24.1 °F 64% 29.91 in 10.0 mi West 15.0 mph - N/A   Scattered Clouds
7:53 AM 37.0 °F 28.5 °F 23.0 °F 57% 29.93 in 10.0 mi WNW 13.8 mph - N/A   Mostly Cloudy
8:53 AM 36.0 °F 25.3 °F 21.0 °F 55% 29.94 in 10.0 mi NW 19.6 mph 27.6 mph N/A   Overcast
9:53 AM 37.0 °F 26.2 °F 24.1 °F 59% 29.96 in 10.0 mi West 21.9 mph 26.5 mph N/A   Overcast
10:53 AM 39.9 °F 30.2 °F 21.9 °F 49% 29.98 in 10.0 mi West 20.7 mph 25.3 mph N/A   Mostly Cloudy
11:53 AM 39.9 °F 30.2 °F 24.1 °F 53% 29.96 in 10.0 mi WNW 20.7 mph 28.8 mph 0.00 in   Mostly Cloudy
12:53 PM 42.1 °F 32.1 °F 19.0 °F 40% 29.96 in 10.0 mi WNW 25.3 mph 32.2 mph N/A   Scattered Clouds
1:53 PM 42.1 °F 32.6 °F 15.1 °F 34% 29.95 in 10.0 mi West 23.0 mph 36.8 mph N/A   Scattered Clouds
2:53 PM 43.0 °F 33.8 °F 12.0 °F 28% 29.95 in 10.0 mi WSW 23.0 mph 35.7 mph N/A   Mostly Cloudy
3:53 PM 37.9 °F 28.9 °F 16.0 °F 41% 29.97 in 10.0 mi WNW 16.1 mph 25.3 mph N/A   Overcast
4:53 PM 42.1 °F 33.1 °F 17.1 °F 37% 29.94 in 10.0 mi WNW 20.7 mph 26.5 mph N/A   Mostly Cloudy
5:53 PM 37.9 °F 29.6 °F 16.0 °F 41% 29.97 in 10.0 mi West 13.8 mph - N/A   Overcast
6:53 PM 37.9 °F 28.9 °F 12.9 °F 36% 30.00 in 10.0 mi West 16.1 mph - N/A   Partly Cloudy
7:53 PM 33.1 °F 24.9 °F 14.0 °F 46% 30.04 in 10.0 mi NW 10.4 mph - N/A   Partly Cloudy
8:53 PM 30.0 °F 18.7 °F 19.0 °F 64% 30.08 in 10.0 mi North 16.1 mph - N/A   Overcast
9:51 PM 28.4 °F 19.7 °F 23.0 °F 80% 30.12 in 2.5 mi ENE 9.2 mph - 0.00 in Snow Light Snow
9:53 PM 28.0 °F 19.3 °F 23.0 °F 81% 30.11 in 2.0 mi NE 9.2 mph - 0.00 in Snow Light Snow
9:57 PM 28.4 °F 19.7 °F 23.0 °F 80% 30.12 in 2.0 mi ENE 9.2 mph - 0.00 in Snow Light Snow
10:02 PM 28.4 °F 18.5 °F 24.8 °F 86% 30.12 in 3.0 mi ENE 11.5 mph - 0.00 in Snow Light Snow
10:17 PM 26.6 °F 15.7 °F 21.2 °F 80% 30.13 in 10.0 mi ENE 12.7 mph - 0.00 in   Overcast
10:53 PM 23.0 °F 9.2 °F 19.0 °F 85% 30.14 in 7.0 mi ENE 17.3 mph 24.2 mph 0.00 in Snow Light Snow
11:53 PM 21.0 °F 8.1 °F 17.1 °F 85% 30.15 in 10.0 mi East 13.8 mph - 0.00 in   Partly Cloudy